Time,TemperatureF,DewpointF,PressureIn,WindDirection,WindDirectionDegrees,WindSpeedMPH,WindSpeedGustMPH,Humidity,HourlyPrecipIn,Conditions,Clouds,dailyrainin,SolarRadiationWatts/m^2,SoftwareType,DateUTC
2013-05-11 00:02:00,61.4,53.0,30.00,SE,132,0.0,0.0,74,0.00,,,0.00,0,Wunderground v.1.15,2013-05-11 07:02:00,
2013-05-11 00:08:00,61.1,53.1,30.00,ESE,123,0.0,0.0,75,0.00,,,0.00,0,Wunderground v.1.15,2013-05-11 07:08:00,
2013-05-11 00:14:00,60.8,52.8,30.00,ESE,123,0.0,0.0,75,0.00,,,0.00,0,Wunderground v.1.15,2013-05-11 07:14:00,
2013-05-11 00:20:00,60.4,52.8,30.00,ESE,104,0.0,0.0,76,0.00,,,0.00,0,Wunderground v.1.15,2013-05-11 07:20:00,
2013-05-11 00:26:00,60.0,52.8,30.00,ESE,113,1.0,5.0,77,0.00,,,0.00,0,Wunderground v.1.15,2013-05-11 07:26:00,
2013-05-11 00:32:00,59.8,52.6,30.00,ESE,123,3.0,3.0,77,0.00,,,0.00,0,Wunderground v.1.15,2013-05-11 07:32:00,
2013-05-11 00:38:00,59.5,52.6,30.00,ESE,122,4.0,5.0,78,0.00,,,0.00,0,Wunderground v.1.15,2013-05-11 07:38:00,
2013-05-11 00:44:00,59.3,52.4,30.00,SE,124,3.0,4.0,78,0.00,,,0.00,0,Wunderground v.1.15,2013-05-11 07:44:00,
2013-05-11 00:50:00,59.1,52.6,30.00,SE,129,1.0,1.0,79,0.00,,,0.00,0,Wunderground v.1.15,2013-05-11 07:50:00,
2013-05-11 00:56:00,58.9,52.7,30.00,East,98,1.0,7.0,80,0.00,,,0.00,0,Wunderground v.1.15,2013-05-11 07:56:00,
2013-05-11 01:02:00,58.6,52.4,30.01,ESE,113,3.0,3.0,80,0.00,,,0.00,0,Wunderground v.1.15,2013-05-11 08:02:00,
2013-05-11 01:08:00,58.5,52.7,30.01,ESE,103,2.0,5.0,81,0.00,,,0.00,0,Wunderground v.1.15,2013-05-11 08:08:00,
2013-05-11 01:14:00,58.5,52.7,30.00,ESE,118,3.0,10.0,81,0.00,,,0.00,0,Wunderground v.1.15,2013-05-11 08:14:00,
2013-05-11 01:20:00,58.4,52.9,30.00,ESE,109,5.0,5.0,82,0.00,,,0.00,0,Wunderground v.1.15,2013-05-11 08:20:00,
2013-05-11 01:26:00,58.2,52.7,30.00,East,101,4.0,5.0,82,0.00,,,0.00,0,Wunderground v.1.15,2013-05-11 08:26:00,
2013-05-11 01:32:00,58.1,52.6,30.00,East,96,1.0,2.0,82,0.00,,,0.00,0,Wunderground v.1.15,2013-05-11 08:32:00,
2013-05-11 01:38:00,58.0,52.5,30.00,East,99,0.0,2.0,82,0.00,,,0.00,0,Wunderground v.1.15,2013-05-11 08:38:00,
2013-05-11 01:44:00,57.9,52.4,30.00,ESE,115,0.0,0.0,82,0.00,,,0.00,0,Wunderground v.1.15,2013-05-11 08:44:00,
2013-05-11 01:50:00,57.8,52.7,30.00,ESE,122,0.0,0.0,83,0.00,,,0.00,0,Wunderground v.1.15,2013-05-11 08:50:00,
2013-05-11 01:56:00,57.7,52.6,30.00,ESE,122,0.0,0.0,83,0.00,,,0.00,0,Wunderground v.1.15,2013-05-11 08:56:00,
2013-05-11 02:02:00,57.6,52.5,30.00,ESE,103,0.0,9.0,83,0.00,,,0.00,0,Wunderground v.1.15,2013-05-11 09:02:00,
2013-05-11 02:08:00,57.5,52.4,30.00,East,96,0.0,9.0,83,0.00,,,0.00,0,Wunderground v.1.15,2013-05-11 09:08:00,
2013-05-11 02:14:00,57.5,52.4,30.00,East,99,0.0,0.0,83,0.00,,,0.00,0,Wunderground v.1.15,2013-05-11 09:14:00,
2013-05-11 02:20:00,57.4,52.3,30.00,East,101,0.0,0.0,83,0.00,,,0.00,0,Wunderground v.1.15,2013-05-11 09:20:00,
2013-05-11 02:26:00,57.3,52.2,30.00,ESE,116,0.0,0.0,83,0.00,,,0.00,0,Wunderground v.1.15,2013-05-11 09:26:00,
2013-05-11 02:32:00,57.2,52.4,30.00,East,101,0.0,0.0,84,0.00,,,0.00,0,Wunderground v.1.15,2013-05-11 09:32:00,
2013-05-11 02:38:00,57.0,52.2,30.00,ESE,110,0.0,0.0,84,0.00,,,0.00,0,Wunderground v.1.15,2013-05-11 09:38:00,
2013-05-11 02:44:00,56.9,52.1,30.00,ESE,111,0.0,0.0,84,0.00,,,0.00,0,Wunderground v.1.15,2013-05-11 09:44:00,
2013-05-11 02:50:00,56.8,52.0,30.00,ESE,103,0.0,0.0,84,0.00,,,0.00,0,Wunderground v.1.15,2013-05-11 09:50:00,
2013-05-11 02:56:00,56.6,51.8,30.00,ESE,103,0.0,0.0,84,0.00,,,0.00,0,Wunderground v.1.15,2013-05-11 09:56:00,
2013-05-11 03:02:00,56.5,51.7,30.00,ESE,103,0.0,12.0,84,0.00,,,0.00,0,Wunderground v.1.15,2013-05-11 10:02:00,
2013-05-11 03:08:00,56.4,51.9,30.00,ESE,103,0.0,12.0,85,0.00,,,0.00,0,Wunderground v.1.15,2013-05-11 10:08:00,
2013-05-11 03:14:00,56.3,51.5,30.00,ESE,103,0.0,0.0,84,0.00,,,0.00,0,Wunderground v.1.15,2013-05-11 10:14:00,
2013-05-11 03:20:00,56.2,51.7,30.00,ESE,103,0.0,0.0,85,0.00,,,0.00,0,Wunderground v.1.15,2013-05-11 10:20:00,
2013-05-11 03:26:00,56.1,51.7,30.00,ESE,103,0.0,0.0,85,0.00,,,0.00,0,Wunderground v.1.15,2013-05-11 10:26:00,
2013-05-11 03:32:00,56.1,51.7,30.00,ESE,103,0.0,0.0,85,0.00,,,0.00,0,Wunderground v.1.15,2013-05-11 10:32:00,
2013-05-11 03:38:00,56.2,51.7,30.00,ESE,103,0.0,0.0,85,0.00,,,0.00,0,Wunderground v.1.15,2013-05-11 10:38:00,
2013-05-11 03:44:00,56.1,51.7,30.00,ESE,103,0.0,0.0,85,0.00,,,0.00,0,Wunderground v.1.15,2013-05-11 10:44:00,
2013-05-11 03:50:00,56.1,51.7,30.00,ESE,103,0.0,0.0,85,0.00,,,0.00,0,Wunderground v.1.15,2013-05-11 10:50:00,
2013-05-11 03:56:00,56.2,52.1,30.00,ESE,103,0.0,0.0,86,0.00,,,0.00,0,Wunderground v.1.15,2013-05-11 10:56:00,
2013-05-11 04:02:00,56.3,52.2,30.00,ESE,105,0.0,0.0,86,0.00,,,0.00,0,Wunderground v.1.15,2013-05-11 11:02:00,
2013-05-11 04:08:00,56.2,51.7,30.00,ESE,105,0.0,0.0,85,0.00,,,0.00,0,Wunderground v.1.15,2013-05-11 11:08:00,
2013-05-11 04:14:00,56.1,52.0,30.00,East,93,0.0,0.0,86,0.00,,,0.00,0,Wunderground v.1.15,2013-05-11 11:14:00,
2013-05-11 04:20:00,56.0,51.9,30.00,East,94,0.0,0.0,86,0.00,,,0.00,0,Wunderground v.1.15,2013-05-11 11:20:00,
2013-05-11 04:26:00,56.0,51.9,30.00,East,96,0.0,0.0,86,0.00,,,0.00,0,Wunderground v.1.15,2013-05-11 11:26:00,
2013-05-11 04:32:00,55.9,51.8,30.00,East,98,0.0,0.0,86,0.00,,,0.00,0,Wunderground v.1.15,2013-05-11 11:32:00,
2013-05-11 04:38:00,55.8,51.7,30.00,East,98,0.0,0.0,86,0.00,,,0.00,0,Wunderground v.1.15,2013-05-11 11:38:00,
2013-05-11 04:44:00,55.7,51.6,30.00,East,98,0.0,0.0,86,0.00,,,0.00,0,Wunderground v.1.15,2013-05-11 11:44:00,
2013-05-11 04:50:00,55.5,51.4,30.00,ESE,117,0.0,0.0,86,0.00,,,0.00,0,Wunderground v.1.15,2013-05-11 11:50:00,
2013-05-11 04:56:00,55.3,51.2,30.00,ESE,118,0.0,0.0,86,0.00,,,0.00,0,Wunderground v.1.15,2013-05-11 11:56:00,
2013-05-11 05:02:00,55.2,51.1,29.99,SE,124,0.0,0.0,86,0.00,,,0.00,0,Wunderground v.1.15,2013-05-11 12:02:00,
2013-05-11 05:08:00,55.0,50.9,30.00,ESE,123,0.0,0.0,86,0.00,,,0.00,0,Wunderground v.1.15,2013-05-11 12:08:00,
2013-05-11 05:14:00,54.8,50.7,30.00,ESE,123,0.0,0.0,86,0.00,,,0.00,0,Wunderground v.1.15,2013-05-11 12:14:00,
2013-05-11 05:20:00,54.7,50.6,29.99,ESE,123,0.0,0.0,86,0.00,,,0.00,0,Wunderground v.1.15,2013-05-11 12:20:00,
2013-05-11 05:26:00,54.5,50.4,29.99,ESE,123,0.0,0.0,86,0.00,,,0.00,0,Wunderground v.1.15,2013-05-11 12:26:00,
2013-05-11 05:32:00,54.4,50.3,30.00,ESE,123,0.0,0.0,86,0.00,,,0.00,0,Wunderground v.1.15,2013-05-11 12:32:00,
2013-05-11 05:38:00,54.3,50.2,30.00,SE,124,0.0,0.0,86,0.00,,,0.00,0,Wunderground v.1.15,2013-05-11 12:38:00,
2013-05-11 05:44:00,54.3,50.5,30.00,SE,124,0.0,0.0,87,0.00,,,0.00,0,Wunderground v.1.15,2013-05-11 12:44:00,
2013-05-11 05:50:00,54.3,50.5,30.00,ESE,121,0.0,0.0,87,0.00,,,0.00,0,Wunderground v.1.15,2013-05-11 12:50:00,
2013-05-11 05:56:00,54.3,50.5,30.00,ESE,117,0.0,0.0,87,0.00,,,0.00,0,Wunderground v.1.15,2013-05-11 12:56:00,
2013-05-11 06:02:00,54.2,50.4,30.00,ESE,117,0.0,0.0,87,0.00,,,0.00,5,Wunderground v.1.15,2013-05-11 13:02:00,
2013-05-11 06:08:00,54.2,50.4,30.00,ESE,117,0.0,0.0,87,0.00,,,0.00,11,Wunderground v.1.15,2013-05-11 13:08:00,
2013-05-11 06:14:00,54.2,50.4,30.00,ESE,117,0.0,0.0,87,0.00,,,0.00,12,Wunderground v.1.15,2013-05-11 13:14:00,
2013-05-11 06:20:00,54.2,50.4,30.01,ESE,117,0.0,0.0,87,0.00,,,0.00,16,Wunderground v.1.15,2013-05-11 13:20:00,
2013-05-11 06:26:00,54.2,50.4,30.01,ESE,115,0.0,0.0,87,0.00,,,0.00,19,Wunderground v.1.15,2013-05-11 13:26:00,
2013-05-11 06:32:00,54.3,50.5,30.01,ESE,115,0.0,0.0,87,0.00,,,0.00,23,Wunderground v.1.15,2013-05-11 13:32:00,
2013-05-11 06:38:00,54.5,50.7,30.01,ESE,115,0.0,0.0,87,0.00,,,0.00,25,Wunderground v.1.15,2013-05-11 13:38:00,
2013-05-11 06:44:00,54.7,50.9,30.01,ESE,115,0.0,0.0,87,0.00,,,0.00,28,Wunderground v.1.15,2013-05-11 13:44:00,
2013-05-11 06:50:00,54.9,51.1,30.01,ESE,115,0.0,0.0,87,0.00,,,0.00,30,Wunderground v.1.15,2013-05-11 13:50:00,
2013-05-11 06:56:00,55.2,51.4,30.01,ESE,115,0.0,0.0,87,0.00,,,0.00,33,Wunderground v.1.15,2013-05-11 13:56:00,
2013-05-11 07:02:00,55.5,51.7,30.01,ESE,115,0.0,0.0,87,0.00,,,0.00,35,Wunderground v.1.15,2013-05-11 14:02:00,
2013-05-11 07:08:00,56.0,52.2,30.01,ESE,115,0.0,0.0,87,0.00,,,0.00,37,Wunderground v.1.15,2013-05-11 14:08:00,
2013-05-11 07:14:00,56.5,52.4,30.01,ESE,115,0.0,0.0,86,0.00,,,0.00,39,Wunderground v.1.15,2013-05-11 14:14:00,
2013-05-11 07:20:00,57.1,53.0,30.01,ESE,115,0.0,0.0,86,0.00,,,0.00,42,Wunderground v.1.15,2013-05-11 14:20:00,
2013-05-11 07:26:00,57.7,53.2,30.01,ESE,115,0.0,0.0,85,0.00,,,0.00,44,Wunderground v.1.15,2013-05-11 14:26:00,
2013-05-11 07:32:00,58.2,53.7,30.01,ESE,115,0.0,0.0,85,0.00,,,0.00,81,Wunderground v.1.15,2013-05-11 14:32:00,
2013-05-11 07:38:00,58.7,53.9,30.02,East,86,0.0,0.0,84,0.00,,,0.00,227,Wunderground v.1.15,2013-05-11 14:38:00,
2013-05-11 07:44:00,59.9,54.7,30.01,East,86,0.0,0.0,83,0.00,,,0.00,246,Wunderground v.1.15,2013-05-11 14:44:00,
2013-05-11 07:50:00,61.2,55.3,30.02,East,82,0.0,0.0,81,0.00,,,0.00,264,Wunderground v.1.15,2013-05-11 14:50:00,
2013-05-11 07:56:00,62.7,55.4,30.02,ENE,74,0.0,0.0,77,0.00,,,0.00,285,Wunderground v.1.15,2013-05-11 14:56:00,
2013-05-11 08:02:00,63.6,55.2,30.02,East,86,0.0,0.0,74,0.00,,,0.00,302,Wunderground v.1.15,2013-05-11 15:02:00,
2013-05-11 08:08:00,64.3,55.1,30.02,ENE,77,0.0,0.0,72,0.00,,,0.00,323,Wunderground v.1.15,2013-05-11 15:08:00,
2013-05-11 08:14:00,64.7,55.1,30.02,ENE,73,0.0,0.0,71,0.00,,,0.00,343,Wunderground v.1.15,2013-05-11 15:14:00,
2013-05-11 08:20:00,64.9,54.9,30.02,ENE,74,0.0,0.0,70,0.00,,,0.00,364,Wunderground v.1.15,2013-05-11 15:20:00,
2013-05-11 08:26:00,65.4,55.7,30.02,East,101,0.0,0.0,71,0.00,,,0.00,383,Wunderground v.1.15,2013-05-11 15:26:00,
2013-05-11 08:32:00,65.5,55.5,30.02,ESE,115,1.0,1.0,70,0.00,,,0.00,403,Wunderground v.1.15,2013-05-11 15:32:00,
2013-05-11 08:38:00,65.5,55.5,30.03,East,88,1.0,1.0,70,0.00,,,0.00,418,Wunderground v.1.15,2013-05-11 15:38:00,
2013-05-11 08:44:00,65.8,56.1,30.03,ESE,112,1.0,3.0,71,0.00,,,0.00,441,Wunderground v.1.15,2013-05-11 15:44:00,
2013-05-11 08:50:00,66.2,56.1,30.03,SE,132,0.0,0.0,70,0.00,,,0.00,461,Wunderground v.1.15,2013-05-11 15:50:00,
2013-05-11 08:56:00,66.5,56.0,30.03,ESE,118,1.0,1.0,69,0.00,,,0.00,483,Wunderground v.1.15,2013-05-11 15:56:00,
2013-05-11 09:02:00,66.9,55.6,30.03,ESE,119,1.0,1.0,67,0.00,,,0.00,499,Wunderground v.1.15,2013-05-11 16:02:00,
2013-05-11 09:08:00,67.0,56.1,30.03,ESE,109,0.0,1.0,68,0.00,,,0.00,522,Wunderground v.1.15,2013-05-11 16:08:00,
2013-05-11 09:14:00,67.6,56.7,30.03,East,99,0.0,1.0,68,0.00,,,0.00,540,Wunderground v.1.15,2013-05-11 16:14:00,
2013-05-11 09:20:00,68.5,57.5,30.03,East,101,0.0,0.0,68,0.00,,,0.00,561,Wunderground v.1.15,2013-05-11 16:20:00,
2013-05-11 09:26:00,69.3,57.5,30.03,ESE,111,1.0,1.0,66,0.00,,,0.00,577,Wunderground v.1.15,2013-05-11 16:26:00,
2013-05-11 09:32:00,70.0,57.7,30.03,ESE,110,1.0,1.0,65,0.00,,,0.00,599,Wunderground v.1.15,2013-05-11 16:32:00,
2013-05-11 09:38:00,70.4,57.6,30.03,East,92,1.0,2.0,64,0.00,,,0.00,612,Wunderground v.1.15,2013-05-11 16:38:00,
2013-05-11 09:44:00,71.0,58.6,30.03,East,91,0.0,0.0,65,0.00,,,0.00,629,Wunderground v.1.15,2013-05-11 16:44:00,
2013-05-11 09:50:00,71.9,58.2,30.03,East,96,0.0,0.0,62,0.00,,,0.00,649,Wunderground v.1.15,2013-05-11 16:50:00,
2013-05-11 09:56:00,72.6,59.3,30.03,East,96,0.0,0.0,63,0.00,,,0.00,668,Wunderground v.1.15,2013-05-11 16:56:00,
2013-05-11 10:02:00,73.3,58.6,30.03,ENE,77,0.0,3.0,60,0.00,,,0.00,686,Wunderground v.1.15,2013-05-11 17:02:00,
2013-05-11 10:08:00,73.8,58.6,30.03,ESE,102,1.0,3.0,59,0.00,,,0.00,700,Wunderground v.1.15,2013-05-11 17:08:00,
2013-05-11 10:14:00,74.3,59.0,30.03,ESE,103,1.0,1.0,59,0.00,,,0.00,717,Wunderground v.1.15,2013-05-11 17:14:00,
2013-05-11 10:20:00,74.7,58.5,30.03,ESE,111,0.0,0.0,57,0.00,,,0.00,733,Wunderground v.1.15,2013-05-11 17:20:00,
2013-05-11 10:26:00,74.8,59.0,30.03,ESE,111,0.0,0.0,58,0.00,,,0.00,749,Wunderground v.1.15,2013-05-11 17:26:00,
2013-05-11 10:32:00,75.4,59.6,30.02,ESE,112,0.0,0.0,58,0.00,,,0.00,763,Wunderground v.1.15,2013-05-11 17:32:00,
2013-05-11 10:38:00,76.4,59.0,30.02,ESE,119,0.0,0.0,55,0.00,,,0.00,784,Wunderground v.1.15,2013-05-11 17:38:00,
2013-05-11 10:44:00,76.7,58.3,30.02,East,90,0.0,1.0,53,0.00,,,0.00,789,Wunderground v.1.15,2013-05-11 17:44:00,
2013-05-11 10:50:00,77.2,58.7,30.02,East,94,0.0,0.0,53,0.00,,,0.00,809,Wunderground v.1.15,2013-05-11 17:50:00,
2013-05-11 10:56:00,77.6,58.6,30.02,ESE,112,0.0,2.0,52,0.00,,,0.00,821,Wunderground v.1.15,2013-05-11 17:56:00,
2013-05-11 11:02:00,77.4,57.9,30.02,East,79,0.0,3.0,51,0.00,,,0.00,831,Wunderground v.1.15,2013-05-11 18:02:00,
2013-05-11 11:08:00,78.0,59.5,30.02,East,79,0.0,3.0,53,0.00,,,0.00,844,Wunderground v.1.15,2013-05-11 18:08:00,
2013-05-11 11:14:00,78.7,59.0,30.02,East,88,0.0,1.0,51,0.00,,,0.00,858,Wunderground v.1.15,2013-05-11 18:14:00,
2013-05-11 11:20:00,79.0,59.3,30.02,ESE,108,1.0,1.0,51,0.00,,,0.00,867,Wunderground v.1.15,2013-05-11 18:20:00,
2013-05-11 11:26:00,79.4,60.2,30.02,ESE,103,1.0,2.0,52,0.00,,,0.00,877,Wunderground v.1.15,2013-05-11 18:26:00,
2013-05-11 11:32:00,80.1,60.3,30.02,ESE,104,1.0,2.0,51,0.00,,,0.00,881,Wunderground v.1.15,2013-05-11 18:32:00,
2013-05-11 11:38:00,80.7,60.3,30.02,East,92,1.0,2.0,50,0.00,,,0.00,896,Wunderground v.1.15,2013-05-11 18:38:00,
2013-05-11 11:44:00,81.2,60.2,30.02,East,83,1.0,1.0,49,0.00,,,0.00,907,Wunderground v.1.15,2013-05-11 18:44:00,
2013-05-11 11:50:00,81.3,59.1,30.02,East,83,0.0,0.0,47,0.00,,,0.00,916,Wunderground v.1.15,2013-05-11 18:50:00,
2013-05-11 11:56:00,81.7,59.5,30.01,East,83,0.0,0.0,47,0.00,,,0.00,925,Wunderground v.1.15,2013-05-11 18:56:00,
2013-05-11 12:02:00,82.2,60.6,30.01,East,86,0.0,4.0,48,0.00,,,0.00,933,Wunderground v.1.15,2013-05-11 19:02:00,
2013-05-11 12:08:00,82.4,60.1,30.01,East,86,0.0,4.0,47,0.00,,,0.00,940,Wunderground v.1.15,2013-05-11 19:08:00,
2013-05-11 12:14:00,82.8,61.1,30.01,East,86,0.0,0.0,48,0.00,,,0.00,893,Wunderground v.1.15,2013-05-11 19:14:00,
2013-05-11 12:20:00,83.3,61.6,30.01,East,86,0.0,0.0,48,0.00,,,0.00,946,Wunderground v.1.15,2013-05-11 19:20:00,
2013-05-11 12:26:00,83.8,60.8,30.01,East,86,0.0,0.0,46,0.00,,,0.00,954,Wunderground v.1.15,2013-05-11 19:26:00,
2013-05-11 12:32:00,84.4,61.4,30.00,ENE,78,0.0,0.0,46,0.00,,,0.00,949,Wunderground v.1.15,2013-05-11 19:32:00,
2013-05-11 12:38:00,85.0,61.3,30.00,East,80,0.0,0.0,45,0.00,,,0.00,958,Wunderground v.1.15,2013-05-11 19:38:00,
2013-05-11 12:44:00,85.4,62.3,30.00,ENE,76,0.0,0.0,46,0.00,,,0.00,958,Wunderground v.1.15,2013-05-11 19:44:00,
2013-05-11 12:50:00,86.1,62.3,30.00,East,81,1.0,1.0,45,0.00,,,0.00,958,Wunderground v.1.15,2013-05-11 19:50:00,
2013-05-11 12:56:00,86.3,62.5,30.00,East,80,0.0,1.0,45,0.00,,,0.00,965,Wunderground v.1.15,2013-05-11 19:56:00,
2013-05-11 13:02:00,86.5,63.9,30.00,East,88,0.0,5.0,47,0.00,,,0.00,967,Wunderground v.1.15,2013-05-11 20:02:00,
2013-05-11 13:08:00,86.8,63.5,30.00,East,88,0.0,5.0,46,0.00,,,0.00,970,Wunderground v.1.15,2013-05-11 20:08:00,
2013-05-11 13:14:00,87.3,62.7,30.00,East,88,0.0,0.0,44,0.00,,,0.00,977,Wunderground v.1.15,2013-05-11 20:14:00,
2013-05-11 13:20:00,87.8,62.5,29.99,ESE,115,1.0,5.0,43,0.00,,,0.00,970,Wunderground v.1.15,2013-05-11 20:20:00,
2013-05-11 13:26:00,87.9,61.9,29.99,East,101,2.0,5.0,42,0.00,,,0.00,977,Wunderground v.1.15,2013-05-11 20:26:00,
2013-05-11 13:32:00,88.2,62.9,29.99,ESE,106,0.0,3.0,43,0.00,,,0.00,976,Wunderground v.1.15,2013-05-11 20:32:00,
2013-05-11 13:38:00,88.3,61.6,29.99,ESE,107,0.0,3.0,41,0.00,,,0.00,965,Wunderground v.1.15,2013-05-11 20:38:00,
2013-05-11 13:44:00,88.7,62.0,29.98,ESE,109,0.0,0.0,41,0.00,,,0.00,963,Wunderground v.1.15,2013-05-11 20:44:00,
2013-05-11 13:50:00,88.9,62.8,29.99,SE,136,0.0,0.0,42,0.00,,,0.00,946,Wunderground v.1.15,2013-05-11 20:50:00,
2013-05-11 13:56:00,89.4,61.9,29.98,SSE,149,0.0,1.0,40,0.00,,,0.00,951,Wunderground v.1.15,2013-05-11 20:56:00,
2013-05-11 14:02:00,89.7,62.9,29.98,ESE,118,1.0,4.0,41,0.00,,,0.00,958,Wunderground v.1.15,2013-05-11 21:02:00,
2013-05-11 14:08:00,89.6,64.1,29.98,ESE,117,1.0,5.0,43,0.00,,,0.00,949,Wunderground v.1.15,2013-05-11 21:08:00,
2013-05-11 14:14:00,89.9,62.3,29.97,ESE,123,1.0,5.0,40,0.00,,,0.00,884,Wunderground v.1.15,2013-05-11 21:14:00,
2013-05-11 14:20:00,90.0,63.8,29.97,ESE,103,2.0,3.0,42,0.00,,,0.00,939,Wunderground v.1.15,2013-05-11 21:20:00,
2013-05-11 14:26:00,89.9,63.7,29.97,East,98,2.0,5.0,42,0.00,,,0.00,853,Wunderground v.1.15,2013-05-11 21:26:00,
2013-05-11 14:32:00,89.9,63.7,29.97,East,87,2.0,5.0,42,0.00,,,0.00,847,Wunderground v.1.15,2013-05-11 21:32:00,
2013-05-11 14:38:00,90.6,63.7,29.97,East,88,1.0,5.0,41,0.00,,,0.00,893,Wunderground v.1.15,2013-05-11 21:38:00,
2013-05-11 14:44:00,91.3,62.9,29.96,WSW,247,1.0,5.0,39,0.00,,,0.00,875,Wunderground v.1.15,2013-05-11 21:44:00,
2013-05-11 14:50:00,91.3,63.6,29.96,ESE,108,1.0,1.0,40,0.00,,,0.00,861,Wunderground v.1.15,2013-05-11 21:50:00,
2013-05-11 14:56:00,91.6,63.9,29.96,South,189,1.0,2.0,40,0.00,,,0.00,800,Wunderground v.1.15,2013-05-11 21:56:00,
2013-05-11 15:02:00,91.7,64.0,29.96,South,175,1.0,9.0,40,0.00,,,0.00,645,Wunderground v.1.15,2013-05-11 22:02:00,
2013-05-11 15:08:00,91.6,63.9,29.95,SSW,210,1.0,9.0,40,0.00,,,0.00,654,Wunderground v.1.15,2013-05-11 22:08:00,
2013-05-11 15:14:00,91.6,63.1,29.95,SSW,199,1.0,1.0,39,0.00,,,0.00,682,Wunderground v.1.15,2013-05-11 22:14:00,
2013-05-11 15:20:00,91.6,62.4,29.95,SSW,196,0.0,0.0,38,0.00,,,0.00,717,Wunderground v.1.15,2013-05-11 22:20:00,
2013-05-11 15:26:00,91.7,63.2,29.94,SSW,196,0.0,0.0,39,0.00,,,0.00,751,Wunderground v.1.15,2013-05-11 22:26:00,
2013-05-11 15:32:00,92.4,63.1,29.94,South,181,0.0,1.0,38,0.00,,,0.00,789,Wunderground v.1.15,2013-05-11 22:32:00,
2013-05-11 15:38:00,92.9,62.8,29.94,SSW,210,1.0,5.0,37,0.00,,,0.00,689,Wunderground v.1.15,2013-05-11 22:38:00,
2013-05-11 15:44:00,93.2,62.3,29.94,SW,217,2.0,2.0,36,0.00,,,0.00,784,Wunderground v.1.15,2013-05-11 22:44:00,
2013-05-11 15:50:00,93.2,63.1,29.94,SW,220,2.0,3.0,37,0.00,,,0.00,673,Wunderground v.1.15,2013-05-11 22:50:00,
2013-05-11 15:56:00,93.5,62.5,29.94,SW,222,2.0,4.0,36,0.00,,,0.00,647,Wunderground v.1.15,2013-05-11 22:56:00,
2013-05-11 16:02:00,93.5,63.3,29.93,SSW,213,2.0,9.0,37,0.00,,,0.00,513,Wunderground v.1.15,2013-05-11 23:02:00,
2013-05-11 16:08:00,93.2,63.1,29.93,SSW,208,1.0,9.0,37,0.00,,,0.00,406,Wunderground v.1.15,2013-05-11 23:08:00,
2013-05-11 16:14:00,92.7,62.6,29.93,SW,221,1.0,3.0,37,0.00,,,0.00,332,Wunderground v.1.15,2013-05-11 23:14:00,
2013-05-11 16:20:00,92.3,63.8,29.93,WSW,239,2.0,2.0,39,0.00,,,0.00,364,Wunderground v.1.15,2013-05-11 23:20:00,
2013-05-11 16:26:00,92.1,62.8,29.93,WSW,240,1.0,2.0,38,0.00,,,0.00,392,Wunderground v.1.15,2013-05-11 23:26:00,
2013-05-11 16:32:00,92.1,62.8,29.93,WSW,238,0.0,0.0,38,0.00,,,0.00,431,Wunderground v.1.15,2013-05-11 23:32:00,
2013-05-11 16:38:00,92.4,63.9,29.92,SW,229,0.0,0.0,39,0.00,,,0.00,461,Wunderground v.1.15,2013-05-11 23:38:00,
2013-05-11 16:44:00,92.6,64.0,29.92,SSW,207,0.0,0.0,39,0.00,,,0.00,401,Wunderground v.1.15,2013-05-11 23:44:00,
2013-05-11 16:50:00,92.7,64.8,29.92,SSW,206,1.0,1.0,40,0.00,,,0.00,422,Wunderground v.1.15,2013-05-11 23:50:00,
2013-05-11 16:56:00,92.9,64.3,29.93,SSW,206,0.0,1.0,39,0.00,,,0.00,483,Wunderground v.1.15,2013-05-11 23:56:00,
2013-05-11 17:02:00,93.2,64.6,29.92,SSW,196,0.0,6.0,39,0.00,,,0.00,592,Wunderground v.1.15,2013-05-12 00:02:00,
2013-05-11 17:08:00,93.6,64.9,29.93,South,186,1.0,6.0,39,0.00,,,0.00,545,Wunderground v.1.15,2013-05-12 00:08:00,
2013-05-11 17:14:00,93.5,64.8,29.92,SSE,163,1.0,1.0,39,0.00,,,0.00,267,Wunderground v.1.15,2013-05-12 00:14:00,
2013-05-11 17:20:00,93.1,65.2,29.93,SSW,204,2.0,2.0,40,0.00,,,0.00,244,Wunderground v.1.15,2013-05-12 00:20:00,
2013-05-11 17:26:00,93.0,63.6,29.92,SSW,192,2.0,3.0,38,0.00,,,0.00,232,Wunderground v.1.15,2013-05-12 00:26:00,
2013-05-11 17:32:00,92.6,62.5,29.92,SSW,211,1.0,4.0,37,0.00,,,0.00,230,Wunderground v.1.15,2013-05-12 00:32:00,
2013-05-11 17:38:00,92.4,63.1,29.92,SSW,195,1.0,4.0,38,0.00,,,0.00,278,Wunderground v.1.15,2013-05-12 00:38:00,
2013-05-11 17:44:00,92.3,63.0,29.92,SSW,194,1.0,1.0,38,0.00,,,0.00,248,Wunderground v.1.15,2013-05-12 00:44:00,
2013-05-11 17:50:00,92.3,63.8,29.92,South,180,0.0,0.0,39,0.00,,,0.00,262,Wunderground v.1.15,2013-05-12 00:50:00,
2013-05-11 17:56:00,92.4,64.6,29.92,South,180,0.0,0.0,40,0.00,,,0.00,239,Wunderground v.1.15,2013-05-12 00:56:00,
2013-05-11 18:02:00,92.2,64.4,29.91,South,180,1.0,1.0,40,0.00,,,0.00,230,Wunderground v.1.15,2013-05-12 01:02:00,
2013-05-11 18:08:00,92.2,63.7,29.91,South,175,1.0,7.0,39,0.00,,,0.00,287,Wunderground v.1.15,2013-05-12 01:08:00,
2013-05-11 18:14:00,92.4,65.3,29.91,South,177,1.0,3.0,41,0.00,,,0.00,316,Wunderground v.1.15,2013-05-12 01:14:00,
2013-05-11 18:20:00,92.7,64.8,29.91,South,175,0.0,0.0,40,0.00,,,0.00,250,Wunderground v.1.15,2013-05-12 01:20:00,
2013-05-11 18:26:00,92.6,64.0,29.91,SE,134,0.0,3.0,39,0.00,,,0.00,272,Wunderground v.1.15,2013-05-12 01:26:00,
2013-05-11 18:32:00,92.3,63.8,29.91,SE,124,1.0,1.0,39,0.00,,,0.00,216,Wunderground v.1.15,2013-05-12 01:32:00,
2013-05-11 18:38:00,91.7,64.0,29.91,ESE,123,1.0,1.0,40,0.00,,,0.00,186,Wunderground v.1.15,2013-05-12 01:38:00,
2013-05-11 18:44:00,91.3,63.6,29.91,SE,125,1.0,3.0,40,0.00,,,0.00,148,Wunderground v.1.15,2013-05-12 01:44:00,
2013-05-11 18:50:00,90.7,63.8,29.91,SE,127,1.0,2.0,41,0.00,,,0.00,130,Wunderground v.1.15,2013-05-12 01:50:00,
2013-05-11 18:56:00,90.2,62.6,29.91,SE,125,2.0,3.0,40,0.00,,,0.00,114,Wunderground v.1.15,2013-05-12 01:56:00,
2013-05-11 19:02:00,89.8,63.6,29.91,SE,125,1.0,8.0,42,0.00,,,0.00,102,Wunderground v.1.15,2013-05-12 02:02:00,
2013-05-11 19:08:00,89.4,63.3,29.91,SE,126,1.0,8.0,42,0.00,,,0.00,93,Wunderground v.1.15,2013-05-12 02:08:00,
2013-05-11 19:14:00,88.9,62.8,29.91,SE,126,1.0,2.0,42,0.00,,,0.00,79,Wunderground v.1.15,2013-05-12 02:14:00,
2013-05-11 19:20:00,88.5,63.1,29.91,SE,126,0.0,0.0,43,0.00,,,0.00,70,Wunderground v.1.15,2013-05-12 02:20:00,
2013-05-11 19:26:00,87.9,62.6,29.91,SE,124,0.0,5.0,43,0.00,,,0.00,62,Wunderground v.1.15,2013-05-12 02:26:00,
2013-05-11 19:32:00,87.4,61.5,29.92,SE,124,0.0,0.0,42,0.00,,,0.00,49,Wunderground v.1.15,2013-05-12 02:32:00,
2013-05-11 19:38:00,86.9,61.7,29.92,SE,126,1.0,4.0,43,0.00,,,0.00,40,Wunderground v.1.15,2013-05-12 02:38:00,
2013-05-11 19:44:00,86.6,61.4,29.92,SE,126,1.0,1.0,43,0.00,,,0.00,30,Wunderground v.1.15,2013-05-12 02:44:00,
2013-05-11 19:50:00,86.1,62.3,29.92,SE,126,0.0,0.0,45,0.00,,,0.00,21,Wunderground v.1.15,2013-05-12 02:50:00,
2013-05-11 19:56:00,85.6,62.4,29.92,SE,126,0.0,0.0,46,0.00,,,0.00,14,Wunderground v.1.15,2013-05-12 02:56:00,
2013-05-11 20:02:00,85.1,62.6,29.92,SE,126,0.0,8.0,47,0.00,,,0.00,7,Wunderground v.1.15,2013-05-12 03:02:00,
2013-05-11 20:08:00,84.5,62.7,29.92,SE,126,0.0,8.0,48,0.00,,,0.00,0,Wunderground v.1.15,2013-05-12 03:08:00,
2013-05-11 20:14:00,83.9,62.7,29.92,SE,126,0.0,0.0,49,0.00,,,0.00,0,Wunderground v.1.15,2013-05-12 03:14:00,
2013-05-11 20:20:00,83.2,62.6,29.92,SE,126,0.0,0.0,50,0.00,,,0.00,0,Wunderground v.1.15,2013-05-12 03:20:00,
2013-05-11 20:26:00,82.6,62.1,29.93,SE,126,0.0,0.0,50,0.00,,,0.00,0,Wunderground v.1.15,2013-05-12 03:26:00,
2013-05-11 20:32:00,82.0,62.1,29.93,SE,126,0.0,0.0,51,0.00,,,0.00,0,Wunderground v.1.15,2013-05-12 03:32:00,
2013-05-11 20:38:00,81.5,61.6,29.93,SE,126,0.0,0.0,51,0.00,,,0.00,0,Wunderground v.1.15,2013-05-12 03:38:00,
2013-05-11 20:44:00,81.2,62.4,29.93,SE,126,0.0,0.0,53,0.00,,,0.00,0,Wunderground v.1.15,2013-05-12 03:44:00,
2013-05-11 20:50:00,80.7,62.0,29.93,SE,126,0.0,0.0,53,0.00,,,0.00,0,Wunderground v.1.15,2013-05-12 03:50:00,
2013-05-11 20:56:00,80.2,62.0,29.93,SE,126,0.0,0.0,54,0.00,,,0.00,0,Wunderground v.1.15,2013-05-12 03:56:00,
2013-05-11 21:02:00,79.8,62.2,29.93,SE,126,0.0,7.0,55,0.00,,,0.00,0,Wunderground v.1.15,2013-05-12 04:02:00,
2013-05-11 21:04:00,79.7,62.1,29.93,SE,126,0.0,7.0,55,0.00,,,0.00,0,Wunderground v.1.15,2013-05-12 04:04:00,
2013-05-11 21:06:00,79.5,61.9,29.94,SE,126,0.0,7.0,55,0.00,,,0.00,0,Wunderground v.1.15,2013-05-12 04:06:00,
2013-05-11 21:12:00,79.2,62.1,29.94,SE,126,0.0,0.0,56,0.00,,,0.00,0,Wunderground v.1.15,2013-05-12 04:12:00,
2013-05-11 21:14:00,79.0,62.0,29.94,SE,126,0.0,0.0,56,0.00,,,0.00,0,Wunderground v.1.15,2013-05-12 04:14:00,
2013-05-11 21:20:00,78.6,62.6,29.94,SE,126,0.0,0.0,58,0.00,,,0.00,0,Wunderground v.1.15,2013-05-12 04:20:00,
2013-05-11 21:26:00,78.2,62.2,29.94,SE,126,0.0,0.0,58,0.00,,,0.00,0,Wunderground v.1.15,2013-05-12 04:26:00,
2013-05-11 21:32:00,77.9,62.4,29.94,SE,126,0.0,0.0,59,0.00,,,0.00,0,Wunderground v.1.15,2013-05-12 04:32:00,
2013-05-11 21:38:00,77.4,61.9,29.94,SE,126,0.0,0.0,59,0.00,,,0.00,0,Wunderground v.1.15,2013-05-12 04:38:00,
2013-05-11 21:44:00,77.0,62.0,29.95,SE,126,0.0,0.0,60,0.00,,,0.00,0,Wunderground v.1.15,2013-05-12 04:44:00,
2013-05-11 21:50:00,76.7,61.8,29.95,SE,126,0.0,0.0,60,0.00,,,0.00,0,Wunderground v.1.15,2013-05-12 04:50:00,
2013-05-11 21:56:00,76.3,61.9,29.95,SE,126,0.0,0.0,61,0.00,,,0.00,0,Wunderground v.1.15,2013-05-12 04:56:00,
2013-05-11 22:02:00,75.9,61.5,29.95,SE,126,0.0,0.0,61,0.00,,,0.00,0,Wunderground v.1.15,2013-05-12 05:02:00,
2013-05-11 22:08:00,75.5,61.6,29.95,SE,126,0.0,0.0,62,0.00,,,0.00,0,Wunderground v.1.15,2013-05-12 05:08:00,
2013-05-11 22:14:00,75.2,60.8,29.95,SE,126,0.0,0.0,61,0.00,,,0.00,0,Wunderground v.1.15,2013-05-12 05:14:00,
2013-05-11 22:20:00,75.0,60.6,29.95,SE,126,0.0,0.0,61,0.00,,,0.00,0,Wunderground v.1.15,2013-05-12 05:20:00,
2013-05-11 22:26:00,74.7,60.8,29.95,SE,126,0.0,0.0,62,0.00,,,0.00,0,Wunderground v.1.15,2013-05-12 05:26:00,
2013-05-11 22:32:00,74.3,60.4,29.95,SE,126,0.0,0.0,62,0.00,,,0.00,0,Wunderground v.1.15,2013-05-12 05:32:00,
2013-05-11 22:38:00,73.9,60.1,29.95,SE,126,0.0,0.0,62,0.00,,,0.00,0,Wunderground v.1.15,2013-05-12 05:38:00,
2013-05-11 22:44:00,73.6,59.8,29.95,SE,126,0.0,0.0,62,0.00,,,0.00,0,Wunderground v.1.15,2013-05-12 05:44:00,
2013-05-11 22:50:00,73.3,59.5,29.96,SE,126,0.0,0.0,62,0.00,,,0.00,0,Wunderground v.1.15,2013-05-12 05:50:00,
2013-05-11 22:56:00,73.0,59.2,29.95,SE,126,0.0,0.0,62,0.00,,,0.00,0,Wunderground v.1.15,2013-05-12 05:56:00,
2013-05-11 23:02:00,72.6,59.3,29.95,SE,126,0.0,0.0,63,0.00,,,0.00,0,Wunderground v.1.15,2013-05-12 06:02:00,
2013-05-11 23:08:00,72.1,58.8,29.96,SE,126,0.0,0.0,63,0.00,,,0.00,0,Wunderground v.1.15,2013-05-12 06:08:00,
2013-05-11 23:14:00,71.6,58.8,29.95,SE,126,0.0,0.0,64,0.00,,,0.00,0,Wunderground v.1.15,2013-05-12 06:14:00,
2013-05-11 23:20:00,71.1,58.7,29.96,SE,126,0.0,0.0,65,0.00,,,0.00,0,Wunderground v.1.15,2013-05-12 06:20:00,
2013-05-11 23:26:00,70.7,58.4,29.96,SE,126,0.0,0.0,65,0.00,,,0.00,0,Wunderground v.1.15,2013-05-12 06:26:00,
2013-05-11 23:32:00,70.0,57.7,29.96,SE,126,1.0,3.0,65,0.00,,,0.00,0,Wunderground v.1.15,2013-05-12 06:32:00,
2013-05-11 23:38:00,69.3,57.9,29.96,SE,128,1.0,3.0,67,0.00,,,0.00,0,Wunderground v.1.15,2013-05-12 06:38:00,
2013-05-11 23:44:00,68.8,57.4,29.96,SE,128,0.0,1.0,67,0.00,,,0.00,0,Wunderground v.1.15,2013-05-12 06:44:00,
2013-05-11 23:50:00,68.4,57.4,29.96,SE,128,0.0,0.0,68,0.00,,,0.00,0,Wunderground v.1.15,2013-05-12 06:50:00,
2013-05-11 23:56:00,67.9,57.8,29.96,SE,128,0.0,0.0,70,0.00,,,0.00,0,Wunderground v.1.15,2013-05-12 06:56:00,